SL-16 DEB, 43354

Orbit data source: Space-Track

SL-16 DEB, 43354 is space debris in LEO originally from a launch on Wed, 04 Sep 1996 UTC launched from the Tyuratam Missile And Space Complex (TTMTR). Debris objects in space refer to the collection of defunct objects orbiting the Earth. Examples of debris include non-operational satellites, rocket bodies, and fragments generated from explosions, collisions, or faulty payload assembly.

Loading next visibility...
Identifier
43354, 1996-051P
Orbit
LEO
Last TLE update
1 day ago
Origin
Manufacturer
Unknown
Mission
Spacecraft
Bus & Motor
Unknown
Mass
Unknown
Launch date (UTC)
1996-09-04 (29 years ago)
Launch vehicle
Unknown
Launch site
Tyuratam Missile And Space Complex (TTMTR)
Object type
Payload
Rocket body
Debris
Shape & HBR
Unknown
Radar Cross Section
Small (<0.1 m²)

Expand to show TLE details & history

TLE from 1 day ago
0 SL-16 DEB
1 43354U 96051P   25128.58349724  .00000774  00000-0  41451-3 0  9996
2 43354  71.1911  69.2594 0092548   5.6281 354.5859 14.13970214211416
Epoch: 2025-05-08T14:00Z
Definitive object data (Epoch: 2025-05-08T14:00:14.161Z)
Latitude
0.00001°
Longitude
-7.45151°
Altitude
781.667 km
Speed
7.498 km/s
True Right ascension
04h 37m 02s
True Declination
0° 00' 00"
Sunlit
Object was in daylight at TLE epoch
Visualization TLE readout
Latitude
70.12369°
Longitude
100.2879°
Altitude
860.528 km
Speed
7.427 km/s
Apparent Right ascension
15h 33m 07s
Apparent Declination
25° 00' 38"
Sunlit
Object is in daylight
Visualization observer readout
Local Sidereal Time
05:12:12
Azimuth
24.013° NE
Elevation
-21.09°
Doppler factor
1
Orbital elements
Apogee altitude
910.561 km
Perigee altitude
776.888 km
Semi-major axis
7,221.861 km
Eccentricity
0.0092548
Inclination
71.1911°
RAAN
69.2594°
Arg. of periapsis
5.6281°
True anomaly
354.48467°
Mean anomaly
354.5859°
Eccentric anomaly
354.5354°
Mean motion
3.53647 °/min
BSTAR
0.00041451
Orbital period
101.8 mins
Loading maneuver chart data...
Loading SW <> Apogee altitude chart data...
Loading historical data...
Loading historical data...
Loading historical data...
Loading historical data...
Loading historical data...
Loading historical data...
Loading historical data...

SL-16 DEB Visibility forecast

Observer location: undefined°, undefined°

Span
Click to sort rows by Start time (UTC) header in descending order
Start Az.
Max El. time (UTC)
Max El. Az.
Max El.
End time (UTC)
End Az.
7 mins2025-05-09 22:25:58.306Z256.751° W2025-05-09 22:28:58.306Z296.95° NW22.652°2025-05-09 22:32:58.306Z352.937° N
7 mins2025-05-10 05:36:58.306Z19.728° NNE2025-05-10 05:39:58.306Z58.92° ENE19.86°2025-05-10 05:43:58.306Z101.856° ESE
10 mins2025-05-10 07:19:58.306Z326.798° NNW2025-05-10 07:23:58.306Z260.18° W41.505°2025-05-10 07:29:58.306Z172.04° S
8 mins2025-05-10 20:27:58.306Z165.981° S2025-05-10 20:30:58.306Z115.506° SE33.25°2025-05-10 20:35:58.306Z38.392° NE
|